﻿測定場所 (Monitoring sites),日付 (Measurement date),時間 (Measurement time),線量率 最大値 (max) μGy/h,線量率 最小値 (min) μGy/h,線量率 平均値 (average) μGy/h,
小平 (Kodaira),2023-06-04,23:01～24:00,0.0304,0.0268,0.0291,
小平 (Kodaira),2023-06-04,22:01～23:00,0.0308,0.0274,0.0291,
小平 (Kodaira),2023-06-04,21:01～22:00,0.0307,0.0272,0.0292,
小平 (Kodaira),2023-06-04,20:01～21:00,0.0313,0.0273,0.0291,
小平 (Kodaira),2023-06-04,19:01～20:00,0.0308,0.0274,0.0293,
小平 (Kodaira),2023-06-04,18:01～19:00,0.0319,0.0274,0.0290,
小平 (Kodaira),2023-06-04,17:01～18:00,0.0308,0.0277,0.0293,
小平 (Kodaira),2023-06-04,16:01～17:00,0.0309,0.0271,0.0293,
小平 (Kodaira),2023-06-04,15:01～16:00,0.0312,0.0267,0.0289,
小平 (Kodaira),2023-06-04,14:01～15:00,0.0304,0.0274,0.0291,
小平 (Kodaira),2023-06-04,13:01～14:00,0.0305,0.0272,0.0290,
小平 (Kodaira),2023-06-04,12:01～13:00,0.0306,0.0272,0.0289,
小平 (Kodaira),2023-06-04,11:01～12:00,0.0319,0.0269,0.0289,
小平 (Kodaira),2023-06-04,10:01～11:00,0.0307,0.0276,0.0291,
小平 (Kodaira),2023-06-04,09:01～10:00,0.0311,0.0270,0.0293,
小平 (Kodaira),2023-06-04,08:01～09:00,0.0317,0.0275,0.0293,
小平 (Kodaira),2023-06-04,07:01～08:00,0.0322,0.0279,0.0297,
小平 (Kodaira),2023-06-04,06:01～07:00,0.0320,0.0282,0.0300,
小平 (Kodaira),2023-06-04,05:01～06:00,0.0327,0.0287,0.0305,
小平 (Kodaira),2023-06-04,04:01～05:00,0.0325,0.0283,0.0302,
小平 (Kodaira),2023-06-04,03:01～04:00,0.0325,0.0275,0.0297,
小平 (Kodaira),2023-06-04,02:01～03:00,0.0325,0.0270,0.0296,
小平 (Kodaira),2023-06-04,01:01～02:00,0.0322,0.0279,0.0296,
小平 (Kodaira),2023-06-04,00:01～01:00,0.0317,0.0281,0.0298,
小平 (Kodaira),2023-06-03,23:01～24:00,0.0311,0.0278,0.0292,
小平 (Kodaira),2023-06-03,22:01～23:00,0.0311,0.0269,0.0288,
小平 (Kodaira),2023-06-03,21:01～22:00,0.0307,0.0276,0.0291,
小平 (Kodaira),2023-06-03,20:01～21:00,0.0305,0.0270,0.0287,
小平 (Kodaira),2023-06-03,19:01～20:00,0.0312,0.0272,0.0291,
小平 (Kodaira),2023-06-03,18:01～19:00,0.0310,0.0273,0.0289,
小平 (Kodaira),2023-06-03,17:01～18:00,0.0318,0.0265,0.0289,
小平 (Kodaira),2023-06-03,16:01～17:00,0.0310,0.0271,0.0292,
小平 (Kodaira),2023-06-03,15:01～16:00,0.0315,0.0270,0.0292,
小平 (Kodaira),2023-06-03,14:01～15:00,0.0313,0.0264,0.0289,
小平 (Kodaira),2023-06-03,13:01～14:00,0.0310,0.0272,0.0291,
小平 (Kodaira),2023-06-03,12:01～13:00,0.0311,0.0278,0.0295,
小平 (Kodaira),2023-06-03,11:01～12:00,0.0320,0.0274,0.0302,
小平 (Kodaira),2023-06-03,10:01～11:00,0.0348,0.0288,0.0319,
小平 (Kodaira),2023-06-03,09:01～10:00,0.0449,0.0336,0.0375,
小平 (Kodaira),2023-06-03,08:01～09:00,0.0449,0.0363,0.0418,
小平 (Kodaira),2023-06-03,07:01～08:00,0.0499,0.0405,0.0456,
小平 (Kodaira),2023-06-03,06:01～07:00,0.0477,0.0397,0.0441,
小平 (Kodaira),2023-06-03,05:01～06:00,0.0461,0.0373,0.0414,
小平 (Kodaira),2023-06-03,04:01～05:00,0.0445,0.0374,0.0413,
小平 (Kodaira),2023-06-03,03:01～04:00,0.0431,0.0364,0.0397,
小平 (Kodaira),2023-06-03,02:01～03:00,0.0411,0.0361,0.0383,
小平 (Kodaira),2023-06-03,01:01～02:00,0.0406,0.0346,0.0376,
小平 (Kodaira),2023-06-03,00:01～01:00,0.0406,0.0347,0.0368,
小平 (Kodaira),2023-06-02,23:01～24:00,0.0402,0.0344,0.0373,
小平 (Kodaira),2023-06-02,22:01～23:00,0.0397,0.0338,0.0368,
小平 (Kodaira),2023-06-02,21:01～22:00,0.0371,0.0314,0.0342,
小平 (Kodaira),2023-06-02,20:01～21:00,0.0363,0.0307,0.0335,
小平 (Kodaira),2023-06-02,19:01～20:00,0.0369,0.0311,0.0343,
小平 (Kodaira),2023-06-02,18:01～19:00,0.0402,0.0341,0.0366,
小平 (Kodaira),2023-06-02,17:01～18:00,0.0400,0.0339,0.0368,
小平 (Kodaira),2023-06-02,16:01～17:00,0.0373,0.0332,0.0354,
小平 (Kodaira),2023-06-02,15:01～16:00,0.0354,0.0305,0.0323,
小平 (Kodaira),2023-06-02,14:01～15:00,0.0323,0.0286,0.0307,
小平 (Kodaira),2023-06-02,13:01～14:00,0.0337,0.0282,0.0306,
小平 (Kodaira),2023-06-02,12:01～13:00,0.0332,0.0279,0.0308,
小平 (Kodaira),2023-06-02,11:01～12:00,0.0348,0.0290,0.0316,
小平 (Kodaira),2023-06-02,10:01～11:00,0.0357,0.0312,0.0329,
小平 (Kodaira),2023-06-02,09:01～10:00,0.0364,0.0326,0.0345,
小平 (Kodaira),2023-06-02,08:01～09:00,0.0394,0.0323,0.0354,
小平 (Kodaira),2023-06-02,07:01～08:00,0.0380,0.0327,0.0356,
小平 (Kodaira),2023-06-02,06:01～07:00,0.0420,0.0337,0.0366,
小平 (Kodaira),2023-06-02,05:01～06:00,0.0383,0.0330,0.0364,
小平 (Kodaira),2023-06-02,04:01～05:00,0.0405,0.0343,0.0369,
小平 (Kodaira),2023-06-02,03:01～04:00,0.0435,0.0366,0.0401,
小平 (Kodaira),2023-06-02,02:01～03:00,0.0444,0.0360,0.0395,
小平 (Kodaira),2023-06-02,01:01～02:00,0.0402,0.0319,0.0357,
小平 (Kodaira),2023-06-02,00:01～01:00,0.0346,0.0292,0.0319,
小平 (Kodaira),2023-06-01,23:01～24:00,0.0316,0.0278,0.0297,
小平 (Kodaira),2023-06-01,22:01～23:00,0.0308,0.0267,0.0286,
小平 (Kodaira),2023-06-01,21:01～22:00,0.0314,0.0267,0.0289,
小平 (Kodaira),2023-06-01,20:01～21:00,0.0315,0.0262,0.0288,
小平 (Kodaira),2023-06-01,19:01～20:00,0.0312,0.0260,0.0290,
小平 (Kodaira),2023-06-01,18:01～19:00,0.0305,0.0264,0.0287,
小平 (Kodaira),2023-06-01,17:01～18:00,0.0308,0.0273,0.0289,
小平 (Kodaira),2023-06-01,16:01～17:00,0.0303,0.0270,0.0289,
小平 (Kodaira),2023-06-01,15:01～16:00,0.0316,0.0277,0.0293,
小平 (Kodaira),2023-06-01,14:01～15:00,0.0313,0.0270,0.0290,
小平 (Kodaira),2023-06-01,13:01～14:00,0.0308,0.0264,0.0286,
小平 (Kodaira),2023-06-01,12:01～13:00,0.0310,0.0268,0.0288,
小平 (Kodaira),2023-06-01,11:01～12:00,0.0303,0.0269,0.0289,
小平 (Kodaira),2023-06-01,10:01～11:00,0.0310,0.0270,0.0288,
小平 (Kodaira),2023-06-01,09:01～10:00,0.0310,0.0273,0.0292,
小平 (Kodaira),2023-06-01,08:01～09:00,0.0313,0.0281,0.0297,
小平 (Kodaira),2023-06-01,07:01～08:00,0.0317,0.0271,0.0295,
小平 (Kodaira),2023-06-01,06:01～07:00,0.0325,0.0283,0.0301,
小平 (Kodaira),2023-06-01,05:01～06:00,0.0321,0.0284,0.0303,
小平 (Kodaira),2023-06-01,04:01～05:00,0.0320,0.0285,0.0300,
小平 (Kodaira),2023-06-01,03:01～04:00,0.0316,0.0285,0.0299,
小平 (Kodaira),2023-06-01,02:01～03:00,0.0316,0.0279,0.0298,
小平 (Kodaira),2023-06-01,01:01～02:00,0.0312,0.0277,0.0296,
小平 (Kodaira),2023-06-01,00:01～01:00,0.0318,0.0273,0.0297,
小平 (Kodaira),2023-05-31,23:01～24:00,0.0315,0.0280,0.0296,
小平 (Kodaira),2023-05-31,22:01～23:00,0.0322,0.0276,0.0296,
小平 (Kodaira),2023-05-31,21:01～22:00,0.0315,0.0268,0.0292,
小平 (Kodaira),2023-05-31,20:01～21:00,0.0308,0.0270,0.0287,
小平 (Kodaira),2023-05-31,19:01～20:00,0.0304,0.0264,0.0285,
小平 (Kodaira),2023-05-31,18:01～19:00,0.0311,0.0268,0.0287,
小平 (Kodaira),2023-05-31,17:01～18:00,0.0308,0.0272,0.0286,
小平 (Kodaira),2023-05-31,16:01～17:00,0.0317,0.0257,0.0288,
小平 (Kodaira),2023-05-31,15:01～16:00,0.0305,0.0270,0.0288,
小平 (Kodaira),2023-05-31,14:01～15:00,0.0320,0.0272,0.0290,
小平 (Kodaira),2023-05-31,13:01～14:00,0.0313,0.0275,0.0287,
小平 (Kodaira),2023-05-31,12:01～13:00,0.0318,0.0268,0.0291,
小平 (Kodaira),2023-05-31,11:01～12:00,0.0317,0.0275,0.0292,
小平 (Kodaira),2023-05-31,10:01～11:00,0.0309,0.0272,0.0291,
小平 (Kodaira),2023-05-31,09:01～10:00,0.0311,0.0275,0.0293,
小平 (Kodaira),2023-05-31,08:01～09:00,0.0313,0.0260,0.0292,
小平 (Kodaira),2023-05-31,07:01～08:00,0.0314,0.0275,0.0293,
小平 (Kodaira),2023-05-31,06:01～07:00,0.0307,0.0271,0.0290,
小平 (Kodaira),2023-05-31,05:01～06:00,0.0312,0.0281,0.0295,
小平 (Kodaira),2023-05-31,04:01～05:00,0.0322,0.0277,0.0299,
小平 (Kodaira),2023-05-31,03:01～04:00,0.0309,0.0273,0.0292,
小平 (Kodaira),2023-05-31,02:01～03:00,0.0318,0.0273,0.0292,
小平 (Kodaira),2023-05-31,01:01～02:00,0.0305,0.0273,0.0289,
小平 (Kodaira),2023-05-31,00:01～01:00,0.0313,0.0260,0.0290,
小平 (Kodaira),2023-05-30,23:01～24:00,0.0312,0.0267,0.0290,
小平 (Kodaira),2023-05-30,22:01～23:00,0.0312,0.0274,0.0292,
小平 (Kodaira),2023-05-30,21:01～22:00,0.0308,0.0266,0.0290,
小平 (Kodaira),2023-05-30,20:01～21:00,0.0308,0.0270,0.0288,
小平 (Kodaira),2023-05-30,19:01～20:00,0.0311,0.0271,0.0289,
小平 (Kodaira),2023-05-30,18:01～19:00,0.0310,0.0267,0.0289,
小平 (Kodaira),2023-05-30,17:01～18:00,0.0313,0.0265,0.0291,
小平 (Kodaira),2023-05-30,16:01～17:00,0.0309,0.0265,0.0289,
小平 (Kodaira),2023-05-30,15:01～16:00,0.0310,0.0269,0.0291,
小平 (Kodaira),2023-05-30,14:01～15:00,0.0312,0.0269,0.0290,
小平 (Kodaira),2023-05-30,13:01～14:00,0.0309,0.0267,0.0292,
小平 (Kodaira),2023-05-30,12:01～13:00,0.0319,0.0273,0.0294,
小平 (Kodaira),2023-05-30,11:01～12:00,0.0316,0.0275,0.0296,
小平 (Kodaira),2023-05-30,10:01～11:00,0.0315,0.0274,0.0295,
小平 (Kodaira),2023-05-30,09:01～10:00,0.0316,0.0275,0.0295,
小平 (Kodaira),2023-05-30,08:01～09:00,0.0321,0.0272,0.0298,
小平 (Kodaira),2023-05-30,07:01～08:00,0.0324,0.0279,0.0301,
小平 (Kodaira),2023-05-30,06:01～07:00,0.0327,0.0288,0.0309,
小平 (Kodaira),2023-05-30,05:01～06:00,0.0366,0.0298,0.0335,
小平 (Kodaira),2023-05-30,04:01～05:00,0.0415,0.0338,0.0379,
小平 (Kodaira),2023-05-30,03:01～04:00,0.0426,0.0349,0.0376,
小平 (Kodaira),2023-05-30,02:01～03:00,0.0409,0.0298,0.0352,
小平 (Kodaira),2023-05-30,01:01～02:00,0.0346,0.0292,0.0313,
小平 (Kodaira),2023-05-30,00:01～01:00,0.0383,0.0314,0.0340,
小平 (Kodaira),2023-05-29,23:01～24:00,0.0425,0.0345,0.0371,
小平 (Kodaira),2023-05-29,22:01～23:00,0.0439,0.0369,0.0406,
小平 (Kodaira),2023-05-29,21:01～22:00,0.0514,0.0416,0.0459,
小平 (Kodaira),2023-05-29,20:01～21:00,0.0520,0.0435,0.0473,
小平 (Kodaira),2023-05-29,19:01～20:00,0.0491,0.0319,0.0394,
小平 (Kodaira),2023-05-29,18:01～19:00,0.0338,0.0283,0.0303,
小平 (Kodaira),2023-05-29,17:01～18:00,0.0318,0.0284,0.0302,
小平 (Kodaira),2023-05-29,16:01～17:00,0.0331,0.0287,0.0311,
小平 (Kodaira),2023-05-29,15:01～16:00,0.0326,0.0282,0.0305,
小平 (Kodaira),2023-05-29,14:01～15:00,0.0319,0.0276,0.0295,
小平 (Kodaira),2023-05-29,13:01～14:00,0.0311,0.0272,0.0292,
小平 (Kodaira),2023-05-29,12:01～13:00,0.0308,0.0268,0.0289,
小平 (Kodaira),2023-05-29,11:01～12:00,0.0311,0.0268,0.0288,
小平 (Kodaira),2023-05-29,10:01～11:00,0.0306,0.0269,0.0291,
小平 (Kodaira),2023-05-29,09:01～10:00,0.0321,0.0278,0.0300,
小平 (Kodaira),2023-05-29,08:01～09:00,0.0356,0.0288,0.0324,
小平 (Kodaira),2023-05-29,07:01～08:00,0.0380,0.0313,0.0348,
小平 (Kodaira),2023-05-29,06:01～07:00,0.0365,0.0308,0.0333,
小平 (Kodaira),2023-05-29,05:01～06:00,0.0486,0.0351,0.0409,
小平 (Kodaira),2023-05-29,04:01～05:00,0.0484,0.0387,0.0423,
小平 (Kodaira),2023-05-29,03:01～04:00,0.0415,0.0363,0.0392,
小平 (Kodaira),2023-05-29,02:01～03:00,0.0367,0.0313,0.0337,
小平 (Kodaira),2023-05-29,01:01～02:00,0.0335,0.0286,0.0312,
小平 (Kodaira),2023-05-29,00:01～01:00,0.0322,0.0281,0.0300,
